Home > Weather > Portimão > Past weeks

Flag for Portugal Past Weather in Portimão, Portugal — Yesterday and Last 2 Weeks

Now
73 °F

Clear.


Feels Like: 72 °F
Forecast: 62 / 85 °F
Wind: 6 mph from West

Location: Faro / Aeroporto

Current Time: Jul 28, 2016 at 12:15:12 AM

Latest Report: Jul 27, 2016 at 11:30 PM


Visibility: 10 mi

Pressure: 29.95 "Hg

Humidity: 89%

Dew Point: 70 °F

Location of PortimãoLocation

Past Weather in Portimão — Graph

°F

Portimão Temperature Yesterday

Maximum temperature yesterday: 81 °F (at 11:00 AM)
Minimum temperature yesterday: 68 °F (at 6:30 AM)
Average temperature yesterday: 75 °F

High & Low Weather Summary for the Past Weeks

 TemperatureHumidityPressure
High95 °F (Jul 21, 6:30 PM)94% (Jul 23, 11:00 PM)30.07 "Hg (Jul 23, 11:00 PM)
Low64 °F (Jul 13, 6:30 AM)25% (Jul 21, 10:00 AM)29.92 "Hg (Jul 17, 4:30 PM)
Average79 °F56%29.98 "Hg
* Reported Jul 12 11:00 PM — Jul 27 11:00 PM, Portimão, Weather by CustomWeather, © 2016

Note: Actual official high and low records may vary slightly from our data, if they occured in-between our weather recording intervals... More about our weather records

Advertising

Portimão Weather History for the Previous 24 Hours

Scroll right to see more
 ConditionsComfort  
Time TempWeatherWind HumidityBarometerVisibility
11:00 PM
Wed, Jul 27
73 °FClear.7 mph89%29.98 "Hg10 mi
10:30 PM73 °FClear.7 mph83%29.95 "Hg10 mi
10:00 PM73 °FClear.7 mph83%29.95 "Hg10 mi
9:30 PM73 °FSunny.6 mph83%29.95 "Hg10 mi
9:00 PM75 °FSunny.7 mph78%29.95 "Hg10 mi
8:30 PM75 °FSunny.6 mph83%29.95 "Hg10 mi
8:00 PM77 °FSunny.7 mph74%29.95 "Hg10 mi
7:30 PM77 °FSunny.7 mph74%29.95 "Hg10 mi
7:00 PM79 °FSunny.8 mph70%29.95 "Hg10 mi
6:30 PM79 °FSunny.8 mph70%29.95 "Hg10 mi
6:00 PM79 °FSunny.9 mph65%29.98 "Hg10 mi
5:30 PM79 °FPassing clouds.7 mph65%29.98 "HgN/A
5:00 PM81 °FPassing clouds.7 mph58%29.98 "HgN/A
4:30 PM79 °FPassing clouds.6 mph58%29.98 "HgN/A
4:00 PM81 °FPassing clouds.6 mph58%29.98 "HgN/A
3:30 PM79 °FPassing clouds.6 mph65%30.01 "HgN/A
3:00 PM79 °FPassing clouds.6 mph65%30.01 "HgN/A
2:30 PM79 °FPassing clouds.7 mph65%30.01 "HgN/A
2:00 PM79 °FPassing clouds.6 mph65%30.01 "HgN/A
1:30 PM79 °FSunny.7 mph61%30.01 "Hg10 mi
1:00 PM79 °FSunny.9 mph58%30.01 "Hg10 mi
12:30 PM81 °FSunny.9 mph54%30.01 "Hg10 mi
12:00 PM81 °FPassing clouds.6 mph58%30.01 "HgN/A
11:30 AM79 °FPassing clouds.5 mph58%30.01 "HgN/A
11:00 AM81 °FSunny.3 mph58%30.01 "Hg10 mi
10:30 AM77 °FPassing clouds.7 mph65%30.01 "HgN/A
10:00 AM77 °FSunny.7 mph61%30.01 "Hg10 mi
9:30 AM77 °FPassing clouds.3 mph61%30.01 "HgN/A
9:00 AM79 °FSunny.No wind42%30.01 "Hg10 mi
8:30 AM73 °FPassing clouds.3 mph50%29.98 "HgN/A
8:00 AM72 °FSunny.1 mph53%29.98 "Hg10 mi
7:30 AM68 °FPassing clouds.3 mph64%29.98 "HgN/A
7:00 AM68 °FPassing clouds.5 mph64%29.98 "HgN/A
6:30 AM68 °FClear.6 mph69%29.98 "Hg10 mi
6:00 AM70 °FClear.5 mph60%29.98 "Hg10 mi
5:30 AM72 °FClear.6 mph57%29.98 "Hg10 mi
5:00 AM72 °FClear.5 mph53%29.98 "Hg10 mi
4:30 AM70 °FClear.5 mph57%29.98 "Hg10 mi
4:00 AM72 °FClear.3 mph50%29.98 "Hg10 mi
3:30 AM73 °FClear.2 mph47%29.98 "Hg10 mi
3:00 AM72 °FClear.1 mph57%29.98 "Hg10 mi
2:30 AM73 °FClear.8 mph53%29.98 "Hg10 mi
2:00 AM73 °FClear.6 mph61%30.01 "Hg10 mi
1:30 AM73 °FClear.9 mph69%30.01 "Hg10 mi
1:00 AM73 °FClear.12 mph69%30.01 "Hg10 mi
12:30 AM73 °FClear.9 mph69%30.01 "Hg10 mi
12:00 AM75 °FClear.8 mph65%30.01 "Hg10 mi
Weather by CustomWeather, © 2016

See weather overviewHow to use our weather pages